This demonstration page uses our WeatherBlox Daily Observations layout. Learn more.

36.17497, -115.13722

Hourly Observations for June 30, 2016

Temp ( °F °C ) Dew Point ( °F °C ) Humidity (%) Winds ( mph kmh ) Pressure ( in mb ) Visibility ( mi km ) Precip ( " mm )
12:53 am 00:53 Clear 92 33.3 50 10 24 24 E 8 13 29.83 1010 10 16.0934 0 0
1:53 am 01:53 Clear 91 32.8 50 10 25 25 ENE 6 9 29.82 1010 10 16.0934 0 0
2:53 am 02:53 Clear 90 32.2 50 10 25 25 SE 6 9 29.82 1010 10 16.0934 0 0
3:53 am 03:53 Clear 88 31.1 51 10.6 28 28 NNW 5 7 29.82 1010 10 16.0934 0 0
4:53 am 04:53 Clear 88 31.1 51 10.6 28 28 Calm 29.83 1010 10 16.0934 0 0
5:53 am 05:53 Sunny 86 30 50 10 29 29 Calm 29.84 1011 10 16.0934 0 0
6:53 am 06:53 Sunny 88 31.1 51 10.6 28 28 ESE 3 6 29.85 1011 10 16.0934 0 0
7:53 am 07:53 Sunny 90 32.2 51 10.6 26 26 ESE 5 7 29.87 1012 10 16.0934 0 0
8:53 am 08:53 Sunny 92 33.3 56 13.3 30 30 SE 13 20 29.88 1012 10 16.0934 0 0
9:53 am 09:53 Sunny 93 33.9 57 13.9 30 30 SE 9 15 29.88 1012 10 16.0934 0 0
10:53 am 10:53 Sunny 95 35 57 13.9 28 28 SSE 9 15 29.88 1012 10 16.0934 0 0
11:53 am 11:53 Sunny 98 36.7 56 13.3 24 24 ESE 12 19 29.85 1011 10 16.0934 0 0
12:53 pm 12:53 Sunny 98 36.7 57 13.9 25 25 VRB 6 9 29.84 1011 10 16.0934 0 0
1:53 pm 13:53 Sunny 97 36.1 57 13.9 26 26 N 7 11 29.84 1010 10 16.0934 0 0
2:53 pm 14:53 Partly Cloudy with Light Rain 91 32.8 59 15 34 34 N 13 20 29.83 1010 10 16.0934 0 0.0254
3:38 pm 15:38 Partly Cloudy 82 28 61 16 48 48 S 22 35 29.74 1007 10 16.0934 0 0
3:53 pm 15:53 Mostly Sunny 79 26.1 59 15 50 50 S 13 20 29.84 1011 10 16.0934 0 0.0254
4:53 pm 16:53 Sunny 84 28.9 56 13.3 38 38 Calm 29.82 1010 10 16.0934 0 0
5:53 pm 17:53 Sunny 86 30 56 13.3 36 36 E 7 11 29.79 1009 10 16.0934 0 0
6:53 pm 18:53 Sunny 87 30.6 55 12.8 34 34 ENE 5 7 29.8 1009 10 16.0934 0 0
7:53 pm 19:53 Partly Cloudy with Light Rain 88 31.1 54 12.2 31 31 SSE 6 9 29.85 1011 10 16.0934 0 0.0254
8:53 pm 20:53 Clear 85 29.4 56 13.3 37 37 E 9 15 29.88 1012 10 16.0934 0 0.0254
9:53 pm 21:53 Mostly Cloudy 83 28.3 56 13.3 40 40 E 23 37 29.92 1013 10 16.0934 0 0
10:53 pm 22:53 Clear 81 27.2 56 13.3 42 42 ESE 15 24 29.93 1014 10 16.0934 0 0
11:53 pm 23:53 Clear 81 27.2 56 13.3 42 42 E 6 9 29.94 1014 10 16.0934 0 0

Powered by AerisWeather